Vancouver, WA
on Sunday, February 24, 2013

Sunday
Previous Day Next Day
Daily Summary
 ActualAverageRecord
Temperature
Mean Temperature °F 44°F  
Max Temperature 51°F 53°F 69°F (1905)
Min Temperature 36°F 36°F 22°F (1962)
Degree Days
Heating Degree Days 21    
Month to date heating degree days 530  
Since 1 July heating degree days 2953  
Cooling Degree Days 0    
Month to date cooling degree days 0  
Year to date cooling degree days 0  
Moisture
Dew Point 34°F   
Average Humidity 68    
Maximum Humidity 92    
Minimum Humidity 44    
Precipitation
Precipitation T in 0.12 in 1.53 in (1994)
Month to date precipitation 0.80 3.41  
Year to date precipitation 4.20 8.91  
Snow
Snow 0.00 in in in ()
Month to date snowfall 0.0  
Snow Depth 0.00 in   
Wind
Wind Speed 5 mph   
Max Wind Speed 15 mph   
Max Gust Speed 22 mph   
Visibility 10 miles   
Events Rain   

Key: T is trace of precipitation, MM is missing value
Source: NWS Daily Summary
Time(PST)TemperatureDew PointHumidity Pressure Visibility Wind DirectionWind SpeedGust SpeedPrecipitationEvents Conditions
12:53 AM 39.0°F 35.1°F 86% 30.44 in 10.0 miles Calm Calm - N/A   Overcast
1:53 AM 36.0°F 33.1°F 89% 30.44 in 10.0 miles Calm Calm - N/A   Overcast
2:53 AM 37.9°F 35.1°F 89% 30.44 in 10.0 miles East 3.5 mph - N/A   Overcast
3:53 AM 37.9°F 34.0°F 86% 30.44 in 10.0 miles East 3.5 mph - N/A   Overcast
4:53 AM 37.9°F 34.0°F 86% 30.43 in 10.0 miles ESE 3.5 mph - N/A   Overcast
5:53 AM 39.0°F 34.0°F 82% 30.43 in 10.0 miles ESE 4.6 mph - N/A   Overcast
6:53 AM 39.0°F 34.0°F 82% 30.43 in 10.0 miles ESE 4.6 mph - N/A   Overcast
7:53 AM 39.0°F 34.0°F 82% 30.42 in 10.0 miles SE 4.6 mph - N/A   Overcast
8:53 AM 41.0°F 34.0°F 76% 30.42 in 10.0 miles SSE 3.5 mph - N/A   Overcast
9:53 AM 42.1°F 35.1°F 76% 30.42 in 10.0 miles ESE 6.9 mph - N/A   Overcast
10:53 AM 44.1°F 35.1°F 71% 30.40 in 10.0 miles SSE 5.8 mph - N/A   Overcast
11:53 AM 46.9°F 35.1°F 63% 30.38 in 10.0 miles SE 5.8 mph - N/A   Overcast
12:53 PM 48.9°F 33.1°F 54% 30.35 in 10.0 miles South 4.6 mph - N/A   Mostly Cloudy
1:53 PM 50.0°F 32.0°F 50% 30.31 in 10.0 miles South 5.8 mph - N/A   Mostly Cloudy
2:53 PM 50.0°F 30.9°F 48% 30.29 in 10.0 miles South 4.6 mph - N/A   Overcast
3:53 PM 51.1°F 30.0°F 44% 30.27 in 10.0 miles South 5.8 mph - N/A   Overcast
4:53 PM 50.0°F 30.0°F 46% 30.24 in 10.0 miles South 3.5 mph - N/A   Overcast
5:53 PM 48.9°F 30.0°F 48% 30.21 in 10.0 miles SSE 3.5 mph - N/A   Mostly Cloudy
6:53 PM 46.0°F 33.1°F 61% 30.19 in 10.0 miles ESE 4.6 mph - N/A   Overcast
7:53 PM 46.0°F 34.0°F 63% 30.16 in 10.0 miles East 6.9 mph - N/A   Overcast
8:53 PM 45.0°F 36.0°F 71% 30.14 in 10.0 miles ESE 9.2 mph - N/A   Overcast
9:53 PM 43.0°F 37.0°F 80% 30.12 in 10.0 miles ESE 8.1 mph - N/A   Overcast
10:53 PM 43.0°F 37.0°F 80% 30.09 in 10.0 miles SE 6.9 mph - 0.00 in Rain Light Rain
11:53 PM 46.9°F 33.1°F 59% 30.06 in 10.0 miles SE 5.8 mph - 0.00 in   Overcast
Moon Phase
Feb. 24 Feb. 25 Mar. 04 Mar. 11 Mar. 19
Sunrise:06:57 AM (PST) Moon Rise:05:08 PM (PST)2/24
Sunset:05:50 PM (PST) Moon Set:05:58 AM (PST)2/24

Copyright © 2014 The Weather Underground, Inc.